World > North America > United States > Missouri > Gumbo

Hourly Gumbo, MO Regional Weather

Feedback E-mail the Weather

Quick WX

Gumbo, MO Weather Maps

°F °C°F °C
Gumbo Weather Map
UTC Time: 8/15/2022, 16:35
Your Time:

Gumbo, MO Regional Weather

Expires:202208151700;;086590
ASUS43 KEAX 151615
RWREAX

WEATHER ROUNDUP FOR EASTERN KANSAS AND NORTHWEST MISSOURI
NATIONAL WEATHER SERVICE KANSAS CITY/PLEASANT HILL MO
1100 AM CDT MON AUG 15 2022


MOZ041-047>049-056>058-063>065-088>090-097-151700-
...EASTERN AND SOUTHERN MISSOURI...
  
CITY           SKY/WX    TMP DP  RH WIND       PRES   REMARKS
ST. LOUIS INTL CLOUDY    73  63  70 NE9       30.03S                  
SPIRIT OF STL  CLOUDY    73  64  73 NE7       30.02S                  
COLUMBIA       PTSUNNY   75  64  68 NE7       30.05S                  
JEFFERSON CITY CLOUDY    74  64  71 E6        30.04R                  
MEXICO         CLOUDY    72  64  78 NE6       30.06F                  
HANNIBAL       MOSUNNY  N/A N/A N/A NE3       30.06S                  
ROLLA          CLOUDY    71  65  81 NE7       30.06R                  
LEBANON        MOSUNNY   79  64  61 E6        30.05S                  
OSAGE BEACH    MOSUNNY  N/A N/A N/A NE9         N/A                   
SPRINGFIELD    SUNNY     84  73  69 VRB3      30.01R HX  90           
BRANSON        SUNNY     82  73  74 E3        30.03S                  
JOPLIN         SUNNY     92  66  42 W8        29.98S HX  94           
WEST PLAINS    MOSUNNY   81  68  64 CALM      30.04R                  
SIKESTON       MOSUNNY   79  68  69 N10       29.98S                  

$$


SKY/WX - Weather  TMP - Temperature  DP - Dew Point  RH - Humidity
WIND - Wind Direction/Speed PRES - Barometric Pressure VSB - Visibility
WCI - Wind Chill Index E13G22 Wind - East Wind 13 mph/Gusts of 22 mph

Trending Headlines

Gumbo Radar Loop



Gumbo Quick Facts


National Two Day Weather Forecast


E-mail the Gumbo Weather Forecast

Voice your opinion or tell us about page issues...